TimeMST,TemperatureF,Dew PointF,Humidity,Sea Level PressureIn,VisibilityMPH,Wind Direction,Wind SpeedMPH,Gust SpeedMPH,PrecipitationIn,Events,Conditions,WindDirDegrees,DateUTC
12:53 AM,33.1,27.0,78,29.85,10.0,North,10.4,-,N/A,,Overcast,360,2013-03-09 07:53:00
1:53 AM,33.1,27.0,78,29.85,10.0,NNW,18.4,26.5,N/A,,Overcast,340,2013-03-09 08:53:00
2:53 AM,35.1,27.0,72,29.83,10.0,NNW,18.4,28.8,N/A,,Overcast,330,2013-03-09 09:53:00
3:53 AM,33.1,27.0,78,29.82,10.0,NNW,20.7,29.9,N/A,,Overcast,340,2013-03-09 10:53:00
4:53 AM,32.0,27.0,82,29.88,10.0,NNW,21.9,26.5,N/A,,Mostly Cloudy,340,2013-03-09 11:53:00
5:53 AM,30.9,27.0,85,29.90,10.0,North,23.0,35.7,N/A,,Clear,350,2013-03-09 12:53:00
6:53 AM,30.9,24.1,76,29.94,10.0,NNW,23.0,36.8,N/A,,Clear,340,2013-03-09 13:53:00
7:53 AM,33.1,21.0,61,29.95,10.0,NNW,29.9,40.3,N/A,,Mostly Cloudy,330,2013-03-09 14:53:00
8:53 AM,34.0,19.9,56,29.97,10.0,NNW,31.1,41.4,N/A,,Mostly Cloudy,330,2013-03-09 15:53:00
9:53 AM,36.0,19.0,50,29.99,10.0,North,28.8,39.1,N/A,,Overcast,350,2013-03-09 16:53:00
10:53 AM,35.1,23.0,61,30.01,10.0,North,31.1,38.0,N/A,,Overcast,350,2013-03-09 17:53:00
11:53 AM,36.0,21.0,55,30.03,10.0,NNW,31.1,41.4,N/A,,Overcast,340,2013-03-09 18:53:00
12:53 PM,36.0,19.9,52,30.03,10.0,NNW,32.2,46.0,N/A,,Scattered Clouds,340,2013-03-09 19:53:00
1:53 PM,36.0,19.9,52,30.03,10.0,NNW,29.9,39.1,N/A,,Scattered Clouds,330,2013-03-09 20:53:00
2:53 PM,36.0,19.9,52,30.04,10.0,NNW,24.2,38.0,N/A,,Mostly Cloudy,330,2013-03-09 21:53:00
3:53 PM,35.1,19.9,54,30.06,10.0,NNW,26.5,38.0,N/A,,Mostly Cloudy,340,2013-03-09 22:53:00
4:53 PM,34.0,19.9,56,30.09,10.0,NNW,21.9,32.2,N/A,,Overcast,330,2013-03-09 23:53:00
5:53 PM,33.1,21.0,61,30.11,10.0,NNW,18.4,27.6,N/A,,Overcast,340,2013-03-10 00:53:00
6:53 PM,32.0,19.9,61,30.14,10.0,NNW,19.6,28.8,N/A,,Mostly Cloudy,340,2013-03-10 01:53:00
7:53 PM,32.0,19.0,59,30.17,10.0,NNW,23.0,33.4,N/A,,Mostly Cloudy,340,2013-03-10 02:53:00
8:53 PM,28.9,19.9,69,30.19,10.0,North,13.8,24.2,N/A,,Clear,350,2013-03-10 03:53:00
9:53 PM,27.0,19.9,75,30.21,10.0,North,12.7,-,N/A,,Clear,360,2013-03-10 04:53:00
10:53 PM,26.1,19.0,75,30.21,10.0,North,16.1,23.0,N/A,,Clear,360,2013-03-10 05:53:00
11:53 PM,25.0,19.0,78,30.22,10.0,North,18.4,23.0,N/A,,Clear,360,2013-03-10 06:53:00